[[{"header":{"parameterUnit":"m.s-1","parameterCategory":1,"la1":30.2991,"la2":30.254,"lo1":-89.0895,"lo2":-89.0444,"dy":0.0017,"dx":0.0017,"nx":28,"ny":28,"refTime":"2024-03-02T03:00:00:Z","depth":0,"parameterNumber":2,"parameterNumberName":"U-component_of_WINDS"},"data":[0,0,0,0,0,0,0,0,0,0,0,0,0,0,0,0,0,0,0,0,0,0,0,0,0,0,0,0,0,0,0,0,0,0,0,0,0,0,0,0,0,0,0,0,0,0,0,0,0,0,0,0,0,0,0,0,0,0,-2.1186,-2.1186,0,-2.1139,-2.1138,-2.1138,-2.1069,-2.1068,-2.1067,-2.1066,-2.1018,-2.1018,-2.1018,0,0,0,0,0,0,0,0,0,0,0,0,0,-2.1218,-2.1218,-2.1186,-2.1186,-2.1185,-2.1139,-2.1138,-2.1138,-2.1069,-2.1068,-2.1066,-2.1065,-2.1018,-2.1018,-2.1018,0,0,0,0,0,0,0,0,0,0,0,0,0,-2.1191,-2.1218,-2.1186,-2.1145,-2.1141,-2.1139,-2.1138,-2.1138,-2.107,-2.1068,-2.1066,-2.1064,-2.1019,-2.1018,-2.1018,-2.1053,0,0,-2.1017,-2.1017,0,0,0,0,0,0,0,0,-2.1192,-2.119,-2.1152,-2.1148,-2.1144,-2.1108,-2.1132,-2.1109,-2.107,-2.1097,-2.1066,-2.1064,-2.105,-2.1047,-2.1042,-2.105,-2.1048,-2.1017,-2.1017,-2.1017,-2.1017,0,0,0,0,0,0,0,-2.1194,-2.1191,-2.1168,-2.1152,-2.1146,-2.113,-2.1124,-2.1127,-2.1084,-2.1094,-2.1089,-2.1085,-2.1047,-2.1042,-2.104,-2.1048,-2.1017,-2.1017,-2.1017,-2.1017,-2.1081,-2.1082,0,0,0,0,0,0,-2.1202,-2.1193,-2.1169,-2.1166,-2.1164,-2.113,-2.1124,-2.1121,-2.1084,-2.1076,-2.1086,-2.1082,-2.1044,-2.1041,-2.1038,-2.1075,-2.1017,-2.1017,-2.1017,-2.1079,-2.1081,-2.1083,0,0,0,0,0,0,-2.1203,-2.1201,-2.1171,-2.1178,-2.1173,-2.1132,-2.1129,-2.1121,-2.1116,-2.1078,-2.107,-2.1089,-2.1042,-2.1039,-2.1049,-2.1072,-2.1017,-2.1017,-2.1077,-2.108,-2.1082,-2.1149,0,0,0,0,0,0,-2.1204,-2.1201,-2.1214,-2.1179,-2.1173,-2.1183,-2.1131,-2.1122,-2.1116,-2.111,-2.1078,-2.1071,-2.104,-2.105,-2.1049,-2.1071,-2.1017,-2.1074,-2.1078,-2.1081,-2.1145,-2.1154,-2.1162,0,0,0,0,0,-2.1206,-2.1235,-2.1215,-2.1212,-2.1188,-2.1184,-2.1181,-2.1144,-2.1118,-2.113,-2.1105,-2.1072,-2.1071,-2.1052,-2.105,-2.1072,-2.1073,-2.1077,-2.1081,-2.1141,-2.1152,-2.1162,0,0,0,0,0,0,-2.1275,-2.123,-2.1207,-2.1226,-2.1209,-2.1172,-2.1187,-2.1157,-2.1148,-2.1142,-2.1098,-2.1091,-2.1107,-2.1091,-2.1071,-2.1103,-2.1067,-2.1071,-2.1113,-2.1123,-2.1132,-2.1134,-2.1016,0,0,0,0,0,-2.1292,-2.1292,-2.1254,-2.1274,-2.1267,-2.1229,-2.1226,-2.1199,-2.118,-2.1172,-2.1148,-2.1131,-2.1126,-2.1124,-2.1118,-2.1143,-2.1134,-2.1157,-2.1166,-2.1173,-2.1177,-2.1187,-2.1197,-2.1097,-2.1097,-2.1096,0,0,-2.1328,-2.1304,-2.1307,-2.1287,-2.1271,-2.1272,-2.1223,-2.1227,-2.1227,-2.1173,-2.118,-2.1163,-2.114,-2.1158,-2.1165,-2.1145,-2.1203,-2.1179,-2.1185,-2.1184,-2.1192,-2.1202,-2.121,-2.1099,-2.1099,-2.1098,0,0,-2.1393,-2.1376,-2.139,-2.1375,-2.1351,-2.1325,-2.1329,-2.1296,-2.1282,-2.1289,-2.1248,-2.1248,-2.1241,-2.1227,-2.1219,-2.1279,-2.1247,-2.1278,-2.1322,-2.1333,-2.1341,-2.1348,-2.1367,-2.1375,-2.1282,-2.1282,-2.1282,0,-2.1441,-2.1441,-2.1402,-2.1407,-2.1399,-2.1351,-2.1365,-2.1352,-2.1328,-2.1323,-2.1302,-2.1292,-2.1274,-2.1286,-2.1301,-2.1297,-2.1299,-2.1281,-2.1343,-2.1349,-2.1355,-2.1373,-2.1381,-2.1286,-2.1286,-2.1285,-2.1285,0,-2.15,-2.15,-2.1515,-2.1491,-2.1486,-2.1496,-2.1458,-2.1457,-2.1431,-2.1408,-2.1415,-2.1392,-2.1379,-2.1381,-2.1356,-2.139,-2.1378,-2.1351,-2.1313,-2.1369,-2.1385,-2.1392,-2.1291,-2.129,-2.1289,-2.1288,0,0,-2.1606,-2.1561,-2.1567,-2.1555,-2.1525,-2.1524,-2.1533,-2.152,-2.1519,-2.1504,-2.1509,-2.1504,-2.1478,-2.1469,-2.1442,-2.1452,-2.1499,-2.1423,-2.1422,-2.1436,-2.1533,-2.1553,-2.1562,-2.1479,-2.148,-2.1481,-2.1534,0,-2.1664,-2.1674,-2.1639,-2.1658,-2.1658,-2.1611,-2.1618,-2.16,-2.1579,-2.1575,-2.1552,-2.1548,-2.1515,-2.1509,-2.1517,-2.1492,-2.1518,-2.1488,-2.1482,-2.1482,-2.1487,-2.1571,-2.1591,-2.1643,-2.1541,-2.1542,-2.1543,0,-2.1733,-2.1721,-2.174,-2.1708,-2.1706,-2.1713,-2.1697,-2.1695,-2.1674,-2.1658,-2.1647,-2.1616,-2.1621,-2.1586,-2.1592,-2.1572,-2.1568,-2.1556,-2.1557,-2.1553,-2.1515,-2.1568,-2.1658,-2.1666,-2.1553,-2.1552,-2.1551,0,-2.1807,-2.1795,-2.1804,-2.1796,-2.176,-2.1765,-2.175,-2.1727,-2.1722,-2.1709,-2.1704,-2.1693,-2.1686,-2.1678,-2.1644,-2.1622,-2.1654,-2.1616,-2.1639,-2.164,-2.1647,-2.1646,-2.1736,-2.1648,-2.1647,-2.1647,-2.1647,0,-2.1874,-2.1887,-2.1837,-2.1842,-2.1855,-2.1815,-2.1829,-2.181,-2.179,-2.1791,-2.1751,-2.1753,-2.1709,-2.1705,-2.1679,-2.1687,-2.1685,-2.1672,-2.1664,-2.1674,-2.1675,-2.1669,-2.1664,-2.1649,-2.1649,-2.1648,-2.1648,0,-2.1958,-2.1925,-2.1931,-2.1896,-2.1888,-2.1899,-2.1868,-2.1872,-2.1848,-2.185,-2.1848,-2.181,-2.1804,-2.177,-2.1757,-2.1739,-2.1756,-2.1742,-2.1763,-2.1757,-2.1782,-2.1779,-2.1869,-2.1878,-2.1786,-2.1787,-2.1788,0,-2.2002,-2.2011,-2.1976,-2.1974,-2.196,-2.1957,-2.1951,-2.1912,-2.1907,-2.1884,-2.189,-2.1881,-2.1871,-2.1864,-2.1835,-2.1825,-2.1809,-2.1842,-2.1807,-2.1816,-2.1807,-2.1806,-2.1806,-2.1848,-2.185,-2.1851,-2.1851,0,-2.2084,-2.2067,-2.2059,-2.2046,-2.2039,-2.2027,-2.2012,-2.2013,-2.197,-2.1967,-2.196,-2.1952,-2.1938,-2.1929,-2.1913,-2.1898,-2.1867,-2.1863,-2.1867,-2.1876,-2.1887,-2.1879,-2.1781,-2.186,-2.1859,-2.1859,-2.1858,-2.1858,-2.2147,-2.2152,-2.2129,-2.2121,-2.2106,-2.2093,-2.2094,-2.2071,-2.2064,-2.2049,-2.2027,-2.2023,-2.2001,-2.1977,-2.1964,-2.196,-2.1942,-2.1949,-2.1951,-2.1952,-2.1957,-2.1889,-2.1957,-2.1957,-2.1956,-2.1956,-2.1956,0,-2.2225,-2.2208,-2.2201,-2.2182,-2.2176,-2.2148,-2.213,-2.2127,-2.2124,-2.2106,-2.2097,-2.2089,-2.208,-2.2051,-2.2039,-2.2041,-2.2027,-2.2039,-2.2037,-2.2034,-2.1974,-2.197,-2.2051,-2.2051,-2.2051,-2.2051,-2.2051,-2.2051,-2.2265,-2.2271,-2.2252,-2.225,-2.2232,-2.2228,-2.222,-2.2208,-2.2193,-2.2185,-2.2177,-2.2158,-2.2136,-2.2122,-2.2112,-2.2104,-2.21,-2.2117,-2.2104,-2.2048,-2.2039,-2.203,-2.2026,-2.2117,-2.2117,-2.2164,-2.2164,-2.2165]},{"header":{"parameterUnit":"m.s-1","parameterCategory":1,"la1":30.2991,"la2":30.254,"lo1":-89.0895,"lo2":-89.0444,"dy":0.0017,"dx":0.0017,"nx":28,"ny":28,"refTime":"2024-03-02T03:00:00:Z","depth":0,"parameterNumber":3,"parameterNumberName":"V-component_of_WINDS"},"data":[0,0,0,0,0,0,0,0,0,0,0,0,0,0,0,0,0,0,0,0,0,0,0,0,0,0,0,0,0,0,0,0,0,0,0,0,0,0,0,0,0,0,0,0,0,0,0,0,0,0,0,0,0,0,0,0,0,0,0.8797,0.8798,0,0.8831,0.8832,0.8832,0.8821,0.882,0.882,0.8819,0.8851,0.8853,0.8854,0,0,0,0,0,0,0,0,0,0,0,0,0,0.8722,0.8723,0.8797,0.8798,0.8798,0.8831,0.8832,0.8832,0.8821,0.882,0.882,0.8819,0.8851,0.8852,0.8854,0,0,0,0,0,0,0,0,0,0,0,0,0,0.8755,0.8723,0.8797,0.8797,0.8797,0.8831,0.8832,0.8832,0.8821,0.882,0.8819,0.8818,0.885,0.8852,0.8854,0.889,0,0,0.8861,0.8862,0,0,0,0,0,0,0,0,0.8753,0.8758,0.8796,0.8797,0.8797,0.8821,0.8817,0.8851,0.8822,0.8812,0.8819,0.8818,0.8842,0.8845,0.8853,0.8891,0.8893,0.8862,0.8863,0.8864,0.8865,0,0,0,0,0,0,0,0.8751,0.8756,0.8811,0.8797,0.8798,0.8794,0.8798,0.8823,0.8832,0.8813,0.8812,0.8816,0.8842,0.8851,0.8854,0.8893,0.8862,0.8864,0.8865,0.8866,0.8963,0.8964,0,0,0,0,0,0,0.8748,0.8754,0.8809,0.8812,0.8772,0.8797,0.8801,0.8814,0.8832,0.8834,0.8817,0.8816,0.8848,0.8851,0.8855,0.8898,0.8864,0.8866,0.8867,0.8962,0.8964,0.8965,0,0,0,0,0,0,0.8747,0.8753,0.8808,0.8783,0.879,0.8799,0.8815,0.8816,0.8825,0.8836,0.8837,0.8825,0.8847,0.8852,0.8882,0.8899,0.8867,0.8869,0.8961,0.8962,0.8964,0.8985,0,0,0,0,0,0,0.8745,0.8753,0.8767,0.8783,0.8791,0.8835,0.8816,0.8817,0.8829,0.8828,0.8843,0.8845,0.8847,0.8878,0.8884,0.8902,0.8871,0.8959,0.8961,0.8964,0.8983,0.8987,0.8991,0,0,0,0,0,0.8742,0.877,0.8768,0.8774,0.8809,0.8836,0.884,0.8842,0.8831,0.8845,0.8852,0.8844,0.8897,0.8882,0.8888,0.8907,0.8958,0.8961,0.8963,0.8981,0.8987,0.8991,0,0,0,0,0,0,0.8755,0.8773,0.8769,0.8804,0.8819,0.8834,0.8852,0.8848,0.8865,0.8863,0.8864,0.8867,0.8898,0.8905,0.8888,0.8942,0.8925,0.893,0.8937,0.8942,0.8946,0.8944,0.8873,0,0,0,0,0,0.8762,0.8783,0.8797,0.8827,0.8834,0.8842,0.8854,0.8854,0.8869,0.8875,0.8884,0.8898,0.8917,0.893,0.8948,0.8984,0.8987,0.9,0.9004,0.9008,0.9011,0.9031,0.9037,0.8974,0.8974,0.8974,0,0,0.8776,0.8789,0.8802,0.883,0.8841,0.8863,0.8847,0.887,0.8886,0.8878,0.8907,0.8914,0.893,0.8963,0.8978,0.897,0.9029,0.9011,0.9014,0.9015,0.9035,0.904,0.9046,0.8976,0.8975,0.8975,0,0,0.8813,0.8825,0.8851,0.8863,0.8881,0.8886,0.8893,0.8909,0.8914,0.8943,0.8938,0.8956,0.899,0.9002,0.9012,0.9055,0.905,0.9061,0.9083,0.9103,0.9108,0.9112,0.9128,0.9134,0.9065,0.9065,0.9065,0,0.8829,0.8862,0.8865,0.8889,0.8902,0.8897,0.8923,0.8934,0.8957,0.8965,0.8956,0.8999,0.9009,0.9045,0.9056,0.9064,0.9072,0.9059,0.9107,0.9111,0.9115,0.9131,0.9137,0.9066,0.9066,0.9066,0.9066,0,0.888,0.8904,0.8923,0.8946,0.8961,0.8986,0.8992,0.9007,0.9006,0.9012,0.9043,0.9055,0.9076,0.9085,0.9083,0.9121,0.9115,0.9107,0.909,0.9123,0.9137,0.9143,0.9068,0.9067,0.9067,0.9067,0,0,0.8926,0.8952,0.8959,0.897,0.899,0.9007,0.9032,0.9055,0.9067,0.9083,0.9104,0.9133,0.9126,0.9137,0.9138,0.9155,0.9189,0.9144,0.9144,0.9152,0.9232,0.9238,0.9245,0.9186,0.9187,0.9188,0.923,0,0.8965,0.9011,0.9015,0.9055,0.9077,0.9073,0.9095,0.9109,0.9115,0.9134,0.9141,0.9162,0.915,0.9157,0.9174,0.9181,0.9205,0.9178,0.9205,0.9206,0.9202,0.9252,0.9259,0.9299,0.9236,0.9237,0.9238,0,0.9017,0.9036,0.908,0.9098,0.9107,0.9127,0.9148,0.9166,0.9182,0.9186,0.92,0.9198,0.9224,0.9206,0.9241,0.9223,0.9234,0.924,0.9241,0.9244,0.9224,0.9257,0.9312,0.9318,0.9246,0.9246,0.9245,0,0.9047,0.9083,0.9114,0.9124,0.9145,0.9159,0.9169,0.9184,0.9197,0.9216,0.9224,0.9245,0.9256,0.9271,0.9275,0.9262,0.9311,0.9293,0.9314,0.9314,0.9325,0.9324,0.9383,0.9331,0.9331,0.9331,0.9331,0,0.9091,0.9117,0.9128,0.9147,0.9177,0.9181,0.921,0.9218,0.9232,0.9253,0.925,0.9269,0.9273,0.9292,0.9295,0.9324,0.9329,0.9333,0.9333,0.9333,0.9333,0.934,0.9338,0.9333,0.9332,0.9332,0.9332,0,0.9129,0.9137,0.917,0.9189,0.9194,0.9215,0.923,0.9249,0.9255,0.9281,0.9287,0.9297,0.932,0.9326,0.9353,0.9355,0.9389,0.9387,0.9384,0.9384,0.9405,0.9403,0.9471,0.948,0.9423,0.9423,0.9424,0,0.9156,0.9177,0.9198,0.9212,0.9223,0.9245,0.9259,0.9264,0.9279,0.9299,0.9315,0.9338,0.9357,0.9394,0.9403,0.9424,0.9422,0.9444,0.9425,0.9425,0.9423,0.9422,0.9424,0.9448,0.9449,0.9449,0.945,0,0.9204,0.9208,0.9229,0.9252,0.9269,0.9287,0.9304,0.9315,0.9322,0.9339,0.9363,0.9378,0.9407,0.9429,0.9451,0.946,0.9456,0.9456,0.9462,0.9462,0.946,0.9462,0.9395,0.9454,0.9454,0.9453,0.9453,0.9453,0.9238,0.9257,0.9275,0.9299,0.9313,0.9329,0.9347,0.9357,0.9378,0.9402,0.9403,0.943,0.9446,0.9475,0.9485,0.9505,0.9498,0.9507,0.9509,0.9511,0.9514,0.9457,0.9509,0.9509,0.9509,0.9509,0.9509,0,0.9287,0.9299,0.9321,0.9346,0.9364,0.936,0.9379,0.9395,0.9419,0.9435,0.9454,0.9482,0.9505,0.9516,0.9538,0.9552,0.9551,0.9558,0.9557,0.9559,0.9518,0.9511,0.9559,0.9559,0.9559,0.9559,0.9559,0.9559,0.9314,0.9346,0.9352,0.939,0.9402,0.9429,0.944,0.9455,0.9468,0.95,0.9519,0.9527,0.9541,0.9565,0.9585,0.9588,0.9596,0.9604,0.9606,0.9567,0.9562,0.9557,0.9551,0.9606,0.9606,0.9646,0.9646,0.9646]}]]